STARLINK-4430 (53485 NORAD) Tracking and Keplerian Element Data

This shows tracking and keplerian element data for the satellite.

Feedback or suggestion? Click here.




ElementValue
Catalog53485
NameSTARLINK-4430
Epoch Orbit1521
Epoch Day324.82126761
Epoch Year2022
RAAN83.8883
Inclination97.6592
Eccentricity0.0002494
Argument of Perigee2.2939
Mean Anonmoly357.8296
Mean Motion15.01270159
Decay Rate7.3E-06
L11 53485U 22099W 22324.82126761 .00000730 00000+0 61408-4 0 9995
L22 53485 97.6592 83.8883 0002494 2.2939 357.8296 15.01270159 15217



Live tracking and technical data element details for STARLINK-4430 (NORAD 53485). STARLINK-4430 can be tracked NOW for your location showing map with azimuth and elevation plus other details from your city location.







IsCatalogInMostPopularTable: catalog: 53485, numindb: 3
Update: records affected: 1



GetName: 53485 STARLINK-4430

Hit Count: updated at: Thu, 08 Dec 2022 18:55:40 GMT